Temp
-6 -7 -7 -7 -7 -7 -6 -6 -7 -8 -7 -7 -7 -7 -7 -6 -6 -6 -6 -5 -5 -5 -5 -5 -5 -5 -5 -5 -5 -5 -5 -5 -5 -5 -5 -5 -5 -5 -5 -5 -5 -5 -6 -6 -7 -7 -7 -7 -8
-7 -7 -8 -8 -8 -6 -6 -7 -6 -7 -6 -5 -8 -8 -7 -6 -6 -5 -6 -5 -6 -5 -5 -5 -5 -5 -5 -5 -5 -5 -5 -5 -5 -5 -5 -5 -5 -5 -5 -5 -5 -6 -6 -6 -7 -7 -8 -8 -8
-6 -7 -7 -8 -8 -6 -6 -6 -6 -7 -6 -6 -6 -7 -7 -6 -6 -6 -6 -5 -6 -6 -5 -5 -5 -5 -5 -5 -5 -5 -5 -5 -5 -5 -5 -5 -5 -5 -5 -6 -6 -6 -6 -7 -7 -7 -8 -8 -8
-6 -6 -7 -7 -7 -7 -7 -6 -7 -7 -6 -6 -6 -6 -6 -6 -6 -6 -6 -6 -6 -6 -5 -5 -5 -5 -5 -5 -6 -6 -5 -5 -5 -5 -5 -5 -5 -5 -6 -6 -6 -6 -7 -7 -7 -7 -8 -8 -8
-5 -6 -6 -7 -8 -7 -7 -8 -8 -7 -6 -5 -7 -7 -7 -6 -5 -6 -6 -7 -6 -6 -6 -6 -6 -6 -5 -5 -6 -6 -6 -6 -6 -6 -6 -6 -6 -6 -6 -6 -6 -7 -7 -7 -7 -8 -8 -8 -8
-5 -5 -6 -7 -7 -8 -9 -7 -6 -7 -7 -4 -7 -7 -6 -6 -6 -6 -7 -7 -6 -6 -6 -6 -6 -6 -6 -6 -6 -6 -6 -6 -6 -6 -6 -6 -6 -6 -6 -6 -7 -7 -7 -7 -8 -8 -8 -8 -8
-5 -5 -5 -6 -7 -9 -9 -7 -7 -7 -7 -6 -6 -6 -7 -6 -6 -6 -7 -7 -7 -7 -6 -6 -6 -6 -6 -6 -6 -6 -6 -7 -6 -6 -6 -6 -6 -6 -6 -7 -7 -7 -7 -7 -8 -8 -8 -8 -8
-5 -4 -5 -6 -6 -7 -9 -8 -6 -6 -7 -6 -5 -6 -6 -7 -6 -6 -7 -7 -7 -7 -7 -6 -6 -6 -6 -6 -6 -6 -7 -7 -7 -7 -7 -7 -7 -7 -7 -7 -7 -7 -8 -8 -8 -8 -9 -9 -9
-5 -4 -4 -5 -7 -6 -9 -9 -5 -6 -5 -5 -4 -7 -6 -6 -6 -5 -6 -7 -7 -7 -7 -7 -6 -6 -6 -6 -6 -6 -7 -7 -7 -7 -7 -7 -7 -7 -7 -7 -8 -8 -8 -8 -8 -8 -9 -9 -9
-5 -5 -5 -6 -7 -9 -9 -9 -6 -5 -7 -7 -6 -7 -6 -7 -6 -6 -7 -7 -7 -7 -7 -7 -7 -7 -7 -6 -6 -6 -7 -7 -7 -7 -7 -7 -7 -7 -7 -7 -8 -8 -8 -8 -9 -9 -9 -9 -9
-5 -5 -5 -6 -7 -7 -9 -8 -9 -8 -6 -7 -8 -7 -7 -7 -6 -6 -7 -7 -7 -7 -7 -7 -7 -7 -7 -7 -7 -6 -7 -7 -7 -7 -7 -7 -7 -7 -8 -8 -8 -8 -9 -9 -9 -9 -9 -9 -9
-6 -5 -6 -5 -7 -8 -7 -7 -6 -8 -9 -9 -5 -8 -8 -7 -6 -6 -8 -8 -8 -8 -8 -8 -7 -8 -8 -7 -7 -7 -7 -7 -7 -7 -7 -7 -8 -8 -8 -8 -8 -9 -9 -9 -9 -9 -9 -9 -9
-6 -6 -5 -6 -6 -8 -7 -8 -5 -3 -8 -7 -7 -8 -9 -8 -6 -6 -7 -8 -8 -8 -8 -8 -7 -8 -8 -8 -8 -8 -7 -7 -7 -8 -7 -7 -8 -7 -8 -8 -9 -9 -9 -9 -9 -10 -10 -10 -10
-6 -6 -5 -5 -6 -7 -7 -8 -6 -6 -9 -7 -8 -8 -8 -9 -7 -8 -8 -8 -8 -8 -8 -8 -7 -8 -8 -8 -8 -8 -8 -8 -8 -8 -8 -8 -8 -8 -8 -8 -9 -9 -9 -9 -10 -10 -10 -10 -10
-6 -6 -6 -6 -6 -7 -7 -7 -7 -6 -7 -7 -7 -8 -7 -6 -7 -8 -9 -9 -9 -9 -9 -9 -8 -8 -8 -8 -8 -8 -8 -8 -8 -8 -8 -8 -8 -8 -8 -9 -9 -9 -9 -10 -10 -10 -10 -10 -11
-6 -6 -6 -7 -7 -7 -7 -7 -8 -7 -8 -8 -7 -7 -6 -6 -8 -9 -9 -9 -9 -9 -9 -9 -8 -8 -8 -8 -8 -8 -9 -9 -9 -9 -9 -9 -9 -9 -10 -10 -10 -10 -10 -11 -11 -10 -11 -11 -11
-7 -7 -7 -7 -8 -8 -8 -8 -8 -8 -8 -7 -7 -7 -6 -7 -8 -9 -10 -10 -10 -10 -9 -9 -9 -8 -8 -8 -8 -8 -8 -9 -10 -10 -10 -10 -10 -9 -10 -10 -10 -11 -11 -11 -11 -11 -11 -12 -12
-8 -8 -7 -7 -7 -8 -8 -8 -9 -9 -10 -10 -7 -7 -8 -8 -9 -10 -10 -10 -10 -10 -9 -9 -9 -9 -9 -9 -9 -9 -8 -9 -10 -11 -10 -10 -10 -9 -10 -10 -11 -11 -11 -12 -12 -12 -12 -12 -12
-9 -9 -9 -9 -9 -9 -9 -8 -10 -9 -11 -10 -8 -9 -9 -9 -10 -10 -10 -10 -10 -10 -9 -9 -9 -9 -9 -9 -9 -9 -8 -9 -10 -11 -11 -10 -10 -10 -10 -11 -11 -11 -12 -12 -12 -12 -12 -12 -12
-9 -10 -10 -9 -10 -10 -10 -9 -10 -10 -10 -10 -9 -10 -10 -10 -10 -10 -10 -9 -10 -10 -9 -9 -9 -9 -9 -9 -9 -9 -9 -10 -10 -10 -10 -10 -10 -10 -10 -11 -11 -11 -11 -11 -11 -11 -12 -13 -13
-12 -11 -11 -9 -9 -10 -10 -10 -10 -10 -10 -11 -9 -10 -10 -9 -10 -9 -9 -10 -9 -10 -11 -10 -10 -9 -10 -9 -9 -9 -10 -10 -10 -10 -11 -10 -11 -11 -11 -11 -11 -11 -11 -11 -11 -11 -11 -12 -12
-12 -12 -11 -10 -10 -10 -10 -10 -9 -10 -11 -11 -10 -10 -10 -10 -10 -10 -9 -10 -11 -10 -10 -9 -9 -10 -10 -10 -10 -10 -10 -10 -10 -11 -11 -11 -11 -11 -11 -11 -11 -12 -12 -12 -12 -12 -12 -12 -12
-13 -13 -12 -12 -12 -11 -9 -10 -10 -10 -10 -11 -11 -11 -11 -11 -11 -10 -10 -10 -8 -9 -10 -10 -10 -10 -10 -10 -10 -10 -10 -10 -11 -11 -11 -11 -11 -12 -12 -12 -12 -12 -12 -12 -13 -13 -13 -13 -13
-13 -12 -13 -13 -13 -12 -11 -12 -11 -11 -11 -11 -11 -11 -11 -11 -11 -11 -11 -10 -9 -9 -10 -10 -10 -11 -11 -11 -11 -11 -11 -11 -11 -12 -12 -12 -12 -12 -12 -12 -12 -12 -12 -13 -13 -13 -13 -13 -13
-13 -13 -13 -13 -13 -13 -13 -12 -12 -12 -12 -12 -12 -11 -11 -10 -11 -11 -11 -10 -10 -10 -10 -10 -10 -11 -11 -11 -11 -12 -12 -12 -12 -12 -12 -12 -12 -12 -12 -12 -12 -13 -13 -13 -13 -13 -13 -14 -14
-13 -13 -13 -13 -13 -13 -13 -13 -12 -13 -13 -12 -11 -12 -11 -11 -11 -11 -11 -11 -10 -11 -11 -12 -11 -12 -11 -12 -12 -12 -12 -12 -12 -12 -12 -12 -13 -13 -13 -13 -13 -13 -13 -13 -13 -13 -13 -13 -14
-14 -15 -15 -13 -14 -12 -12 -13 -12 -12 -12 -12 -12 -11 -12 -10 -10 -9 -8 -10 -9 -9 -11 -12 -13 -13 -12 -12 -12 -12 -13 -13 -13 -13 -13 -13 -13 -13 -13 -13 -13 -13 -13 -13 -13 -13 -13 -13 -14
-15 -15 -15 -16 -14 -13 -13 -13 -13 -12 -12 -12 -11 -12 -11 -12 -10 -10 -9 -8 -10 -10 -12 -11 -12 -13 -13 -13 -12 -12 -13 -13 -13 -13 -13 -13 -13 -13 -13 -13 -13 -13 -13 -13 -13 -14 -14 -14 -14
-15 -16 -17 -17 -16 -16 -15 -14 -14 -14 -13 -13 -13 -12 -12 -12 -12 -11 -11 -11 -11 -11 -12 -12 -12 -12 -13 -13 -13 -13 -13 -13 -13 -13 -13 -13 -13 -13 -13 -13 -13 -13 -13 -13 -13 -14 -14 -14 -14
-17 -17 -17 -17 -16 -17 -16 -15 -15 -15 -14 -13 -13 -13 -12 -12 -11 -12 -11 -11 -11 -12 -12 -12 -13 -13 -13 -14 -14 -14 -14 -14 -14 -14 -14 -14 -14 -14 -14 -14 -14 -14 -14 -14 -14 -14 -14 -14 -14
Height
5907 5906 5906 5906 5908 5908 5911 5913 5907 5907 5906 5907 5912 5914 5912 5910 5911 5916 5913 5913 5913 5913 5913 5913 5914 5915 5915 5915 5915 5915 5915 5915 5915 5914 5914 5913 5913 5913 5912 5913 5912 5912 5912 5911 5911 5910 5910 5911 5911
5905 5904 5904 5904 5907 5909 5912 5914 5909 5907 5906 5905 5909 5912 5912 5911 5911 5913 5912 5912 5912 5913 5912 5914 5915 5915 5915 5915 5915 5914 5914 5914 5914 5914 5914 5913 5913 5913 5913 5913 5913 5913 5912 5912 5912 5912 5911 5911 5911
5901 5902 5903 5902 5906 5906 5907 5909 5903 5906 5909 5905 5906 5910 5909 5910 5911 5915 5909 5911 5911 5912 5912 5913 5914 5914 5914 5914 5914 5913 5914 5913 5913 5913 5913 5912 5912 5913 5913 5913 5913 5914 5914 5913 5912 5913 5913 5912 5911
5898 5900 5900 5903 5904 5900 5901 5903 5899 5899 5900 5897 5902 5904 5906 5908 5908 5910 5907 5910 5910 5911 5911 5912 5912 5913 5913 5913 5913 5912 5913 5912 5912 5912 5912 5912 5912 5912 5913 5913 5913 5913 5914 5914 5913 5913 5913 5913 5911
5896 5896 5898 5901 5903 5897 5900 5898 5895 5896 5899 5891 5897 5900 5904 5904 5906 5906 5907 5909 5909 5910 5910 5910 5911 5911 5912 5912 5912 5912 5912 5911 5911 5911 5911 5911 5912 5911 5912 5913 5913 5913 5913 5913 5913 5913 5913 5913 5912
5894 5894 5897 5900 5899 5894 5899 5890 5886 5891 5891 5871 5896 5900 5902 5903 5904 5904 5907 5905 5908 5908 5908 5909 5910 5910 5910 5910 5911 5911 5911 5912 5910 5910 5911 5911 5911 5911 5912 5912 5913 5913 5913 5912 5913 5913 5913 5913 5912
5893 5891 5894 5896 5895 5893 5894 5885 5886 5889 5892 5877 5898 5898 5900 5899 5899 5901 5905 5903 5905 5906 5907 5908 5908 5908 5908 5908 5909 5909 5909 5910 5909 5909 5910 5910 5910 5910 5911 5911 5912 5913 5912 5911 5912 5912 5913 5913 5912
5890 5889 5891 5892 5897 5894 5893 5888 5879 5882 5889 5895 5899 5898 5898 5897 5897 5897 5901 5902 5902 5904 5905 5906 5907 5907 5906 5907 5907 5907 5907 5907 5907 5907 5908 5909 5909 5910 5910 5911 5911 5912 5912 5911 5911 5911 5912 5913 5913
5886 5888 5890 5892 5893 5890 5896 5886 5859 5873 5878 5894 5888 5892 5895 5895 5895 5895 5898 5901 5900 5903 5904 5905 5905 5904 5904 5904 5904 5905 5904 5905 5905 5906 5906 5907 5907 5908 5909 5909 5910 5910 5911 5911 5911 5911 5912 5912 5912
5883 5885 5889 5890 5889 5883 5889 5886 5866 5863 5876 5875 5886 5888 5888 5888 5890 5894 5893 5900 5900 5901 5901 5902 5903 5902 5902 5902 5902 5902 5902 5903 5903 5904 5905 5906 5906 5906 5907 5908 5909 5909 5910 5910 5910 5911 5911 5911 5912
5880 5883 5884 5886 5886 5881 5883 5882 5880 5874 5840 5868 5877 5884 5884 5883 5884 5890 5892 5893 5898 5900 5899 5900 5900 5900 5899 5900 5900 5899 5900 5900 5902 5902 5903 5904 5904 5904 5905 5905 5906 5909 5909 5909 5910 5909 5909 5909 5910
5876 5877 5879 5882 5882 5879 5880 5874 5873 5874 5870 5871 5845 5880 5884 5886 5882 5886 5890 5892 5894 5896 5896 5897 5896 5898 5897 5897 5897 5897 5898 5899 5899 5900 5901 5902 5904 5903 5905 5903 5905 5906 5906 5907 5908 5908 5907 5907 5908
5872 5872 5872 5876 5876 5875 5876 5869 5865 5868 5866 5868 5846 5872 5880 5885 5880 5881 5886 5889 5890 5891 5892 5893 5891 5893 5895 5893 5895 5895 5896 5896 5897 5898 5899 5900 5900 5901 5901 5903 5903 5904 5905 5904 5905 5904 5905 5905 5905
5866 5867 5868 5869 5872 5871 5871 5866 5862 5860 5859 5862 5859 5873 5875 5874 5876 5879 5883 5885 5886 5887 5889 5890 5887 5889 5890 5891 5891 5892 5893 5895 5895 5895 5896 5897 5898 5898 5899 5900 5900 5901 5902 5903 5903 5903 5902 5902 5902
5860 5862 5862 5864 5866 5868 5867 5865 5857 5859 5857 5864 5869 5873 5876 5871 5873 5876 5880 5882 5883 5884 5885 5886 5882 5885 5886 5887 5886 5888 5888 5892 5892 5893 5893 5894 5894 5896 5897 5897 5896 5897 5898 5899 5899 5900 5899 5899 5899
5855 5856 5857 5859 5859 5864 5860 5859 5857 5854 5853 5856 5864 5870 5869 5867 5865 5870 5874 5874 5874 5876 5876 5880 5880 5879 5880 5881 5881 5882 5884 5886 5887 5889 5889 5890 5890 5891 5893 5893 5892 5894 5895 5894 5894 5895 5895 5895 5895
5849 5850 5850 5851 5851 5853 5854 5857 5856 5847 5845 5847 5856 5862 5863 5858 5862 5866 5868 5868 5869 5872 5870 5874 5875 5873 5874 5874 5876 5876 5877 5881 5883 5883 5883 5884 5884 5885 5888 5888 5888 5889 5890 5890 5889 5890 5890 5892 5890
5842 5842 5843 5845 5848 5844 5845 5848 5852 5842 5840 5839 5847 5846 5847 5849 5854 5859 5861 5863 5864 5865 5864 5867 5869 5867 5868 5868 5869 5870 5871 5875 5877 5877 5875 5878 5879 5880 5882 5882 5883 5883 5884 5884 5883 5883 5885 5885 5884
5834 5835 5836 5840 5842 5837 5839 5839 5843 5846 5838 5835 5840 5842 5844 5845 5847 5854 5856 5857 5858 5860 5859 5860 5862 5861 5861 5862 5863 5864 5866 5868 5870 5871 5870 5871 5872 5873 5877 5876 5876 5876 5877 5876 5875 5875 5877 5877 5876
5829 5828 5829 5830 5834 5832 5834 5835 5837 5838 5835 5834 5836 5838 5837 5836 5842 5840 5844 5847 5850 5853 5852 5853 5854 5854 5853 5854 5856 5857 5859 5861 5862 5860 5864 5866 5866 5865 5867 5869 5868 5869 5868 5866 5866 5866 5867 5866 5866
5824 5822 5822 5822 5827 5826 5825 5825 5828 5831 5831 5828 5826 5830 5833 5829 5832 5826 5830 5831 5834 5841 5843 5844 5845 5845 5846 5845 5847 5848 5851 5853 5852 5855 5856 5857 5857 5858 5859 5859 5859 5861 5859 5857 5856 5856 5856 5855 5854
5815 5816 5814 5814 5816 5818 5823 5816 5823 5826 5827 5827 5823 5822 5825 5828 5828 5827 5824 5826 5830 5830 5830 5833 5835 5835 5836 5838 5839 5840 5841 5843 5846 5848 5847 5847 5848 5850 5851 5850 5850 5850 5849 5848 5847 5846 5846 5846 5842
5801 5800 5804 5805 5806 5807 5812 5810 5814 5821 5823 5823 5818 5814 5811 5813 5817 5820 5820 5821 5822 5819 5820 5821 5824 5824 5826 5828 5830 5830 5831 5834 5837 5839 5837 5837 5839 5840 5841 5841 5841 5840 5840 5839 5838 5836 5836 5836 5834
5794 5793 5795 5795 5798 5797 5806 5808 5812 5808 5808 5808 5808 5796 5794 5798 5802 5806 5808 5808 5811 5808 5809 5813 5813 5814 5815 5818 5819 5821 5821 5824 5827 5827 5827 5829 5830 5831 5831 5831 5831 5830 5829 5829 5828 5827 5826 5824 5824
5788 5785 5784 5787 5789 5789 5794 5796 5794 5799 5795 5793 5794 5793 5787 5785 5789 5789 5790 5796 5798 5798 5801 5803 5803 5805 5807 5808 5809 5810 5810 5813 5814 5815 5818 5819 5821 5821 5820 5820 5819 5820 5819 5818 5817 5815 5814 5813 5812
5781 5775 5779 5776 5778 5776 5782 5783 5782 5784 5784 5781 5780 5779 5779 5781 5783 5774 5773 5776 5782 5785 5789 5790 5793 5794 5796 5798 5799 5799 5799 5802 5803 5806 5806 5809 5810 5809 5808 5807 5807 5807 5807 5806 5805 5804 5803 5802 5801
5772 5771 5769 5758 5762 5762 5771 5773 5764 5769 5772 5767 5772 5773 5773 5771 5768 5756 5751 5756 5775 5761 5767 5778 5780 5785 5787 5788 5788 5789 5790 5790 5792 5793 5793 5796 5798 5795 5792 5793 5794 5794 5793 5793 5792 5790 5790 5789 5788
5761 5759 5758 5757 5753 5751 5756 5756 5759 5761 5760 5757 5760 5763 5766 5766 5763 5767 5741 5749 5753 5759 5767 5768 5769 5770 5773 5774 5777 5778 5778 5778 5778 5779 5780 5781 5782 5781 5782 5781 5780 5780 5780 5779 5777 5776 5776 5774 5773
5748 5745 5746 5744 5742 5740 5740 5745 5746 5745 5744 5748 5750 5756 5757 5756 5758 5754 5737 5743 5753 5756 5760 5758 5756 5757 5756 5761 5762 5763 5763 5763 5765 5766 5767 5767 5768 5769 5768 5768 5767 5766 5766 5764 5763 5762 5761 5760 5758
5738 5735 5735 5733 5735 5732 5727 5730 5723 5731 5736 5738 5741 5744 5745 5743 5743 5741 5730 5741 5741 5741 5741 5742 5742 5743 5742 5747 5750 5750 5751 5752 5751 5751 5753 5754 5754 5754 5753 5752 5751 5751 5749 5749 5747 5745 5744 5742 5741
Wind_Speed
14 17 16 17 18 16 16 10 18 20 24 20 19 19 14 12 10 3 8 7 5 5 3 0 0 1 3 3 2 2 3 4 3 3 2 3 2 2 3 4 6 6 5 5 6 6 7 8 8
15 18 17 18 13 13 16 7 28 20 20 16 7 17 16 12 12 8 11 10 8 7 4 2 1 2 2 3 4 4 3 4 4 3 3 3 3 1 2 4 6 6 5 4 4 5 6 7 8
16 17 18 20 10 16 20 14 17 27 20 13 6 10 13 10 13 11 12 8 9 9 7 5 3 3 2 3 4 5 4 3 4 4 5 4 2 1 3 4 5 5 5 4 4 5 6 7 7
16 17 18 15 12 14 16 13 11 12 16 13 7 12 10 11 13 11 12 8 10 11 10 7 5 4 3 3 3 4 4 3 3 3 3 3 1 1 2 3 3 4 5 4 4 5 5 6 5
15 18 16 14 9 10 18 9 12 15 14 14 7 8 7 11 10 8 9 9 11 12 10 7 5 5 6 5 5 3 3 2 2 3 3 2 1 1 2 4 2 2 3 3 3 3 4 3 3
13 16 18 17 10 9 23 19 25 5 14 21 6 10 10 6 5 6 6 11 9 10 10 8 6 7 7 9 8 6 4 4 3 1 2 1 1 1 4 4 3 2 2 1 1 2 2 2 2
12 16 17 22 21 3 26 31 22 2 8 11 10 8 10 9 8 8 1 13 9 9 10 8 8 10 11 12 7 6 7 7 5 4 3 3 3 3 5 5 3 2 1 0 1 1 1 1 2
13 17 17 24 21 4 18 30 16 6 9 11 17 9 11 11 11 7 3 11 11 9 12 10 11 10 8 8 7 7 7 8 7 6 5 5 4 4 5 6 3 2 1 2 2 2 2 2 3
16 17 12 19 16 10 11 32 7 16 12 20 26 13 19 12 11 6 3 9 12 11 11 11 8 4 6 6 5 5 3 4 6 6 5 4 4 6 6 5 4 3 3 3 3 3 4 4 3
20 17 11 17 18 6 6 25 16 13 38 35 28 22 18 12 14 7 8 7 12 11 12 11 8 7 9 9 7 5 4 2 3 3 3 4 6 7 7 6 7 5 5 6 5 4 6 5 5
22 18 15 19 23 18 10 11 33 42 33 17 21 21 20 19 16 10 9 11 11 11 11 11 10 11 12 12 10 8 5 4 4 4 5 6 8 7 6 7 9 7 8 8 8 8 8 8 9
22 19 16 19 30 28 22 31 32 36 40 41 20 18 22 24 18 13 11 10 10 11 11 12 14 13 14 13 13 11 7 6 6 7 6 6 6 7 6 10 8 9 10 10 10 11 11 11 10
21 20 21 19 33 37 32 36 44 40 44 36 18 3 14 22 25 20 14 11 12 12 13 16 19 17 14 15 12 12 10 7 6 7 7 5 6 6 6 6 8 10 11 12 13 14 14 14 13
23 22 21 24 25 38 41 43 49 48 46 45 45 33 28 15 19 20 20 18 16 17 15 13 21 15 15 14 13 11 10 7 8 8 7 8 7 6 7 6 8 9 10 11 14 16 15 15 15
26 23 22 19 26 27 43 47 53 54 49 41 32 20 30 27 27 22 22 23 21 19 19 17 20 15 14 15 15 12 11 7 11 10 10 10 10 8 8 8 11 10 10 12 15 16 16 17 16
24 22 20 17 23 27 33 39 46 49 53 47 37 43 43 31 30 27 27 27 25 24 24 17 17 19 18 19 19 16 14 13 14 14 12 12 14 14 12 13 16 14 13 16 17 17 19 20 20
22 19 19 21 20 21 26 32 33 41 46 43 30 31 36 29 34 32 33 31 29 27 26 19 17 22 21 21 20 21 20 17 16 17 19 18 18 19 18 20 23 20 19 21 23 22 24 24 25
20 24 27 24 21 23 23 27 17 28 32 41 31 37 28 35 34 35 38 36 32 28 28 25 23 23 22 24 21 23 23 22 20 21 26 23 24 25 25 27 28 28 26 27 28 29 29 28 31
21 24 27 20 17 26 25 22 25 22 31 33 32 35 35 39 40 38 36 33 33 32 35 31 28 26 27 28 27 25 24 24 24 27 30 30 30 31 31 32 34 33 33 33 34 36 35 35 37
20 21 29 28 25 31 30 30 28 22 32 35 30 29 35 40 37 41 39 43 35 37 38 36 33 31 33 34 31 26 25 26 29 34 31 31 34 36 36 36 36 33 35 36 36 39 40 43 43
21 22 33 35 32 37 37 35 32 25 29 35 39 37 37 41 41 40 41 39 37 35 39 40 38 35 35 36 32 31 29 28 33 33 33 36 38 39 38 36 37 37 38 37 38 38 37 39 43
28 28 32 30 29 43 39 44 40 36 36 39 46 49 44 36 33 33 42 32 38 35 39 43 42 40 39 37 36 35 34 33 32 30 33 37 38 36 37 39 39 39 38 38 37 37 37 35 38
19 28 30 26 28 31 33 49 45 43 39 29 36 42 43 42 36 32 26 40 45 43 42 47 48 46 41 40 38 39 38 38 34 32 37 39 37 38 39 40 40 40 39 38 37 37 34 35 37
30 30 27 26 28 34 29 28 27 29 29 38 39 41 44 45 42 41 41 39 44 36 43 41 44 47 46 44 44 45 43 42 38 39 40 39 40 40 40 42 43 43 42 42 42 42 42 42 39
39 41 40 39 37 36 28 23 28 30 35 38 38 45 51 50 45 48 49 49 46 40 42 43 40 44 47 48 48 47 47 46 44 44 41 42 42 43 44 45 47 46 45 45 44 45 45 44 43
30 48 36 41 34 36 36 34 37 39 43 44 43 42 48 51 53 55 56 53 51 47 50 50 37 42 46 48 50 51 53 52 47 47 46 47 47 49 51 52 53 53 51 51 51 51 49 49 48
44 38 37 42 37 41 32 46 49 41 42 46 49 38 40 40 40 56 52 58 45 60 32 36 23 29 39 48 56 57 54 52 52 53 54 52 51 53 54 55 56 56 55 55 55 56 54 53 53
37 42 43 39 52 46 45 40 34 44 35 42 49 38 41 46 48 44 55 55 30 50 26 42 40 47 41 47 52 55 55 55 57 59 60 56 56 56 56 56 56 56 58 59 59 57 56 57 58
29 31 34 38 42 41 47 53 48 44 45 39 40 43 42 36 43 49 75 60 66 57 51 47 51 53 41 45 47 50 54 55 55 56 56 56 57 57 57 58 60 61 61 62 62 61 62 63 63
31 31 32 35 43 50 55 55 52 55 51 51 43 46 57 42 35 44 30 42 58 60 67 67 60 54 60 47 51 50 51 54 55 56 57 59 60 60 61 62 64 65 65 66 68 69 66 67 70
Wind_Direction
210 217 216 218 231 224 188 226 153 163 188 192 261 292 274 283 287 295 284 271 267 255 239 219 123 20 35 48 21 351 309 282 264 256 227 212 177 118 78 61 67 74 74 72 69 76 72 66 61
212 218 221 234 241 242 229 261 250 201 198 218 264 271 273 278 281 298 262 276 256 255 248 256 303 356 17 26 19 8 320 269 251 229 215 204 186 160 66 51 55 59 66 63 58 57 57 57 49
219 220 227 236 252 255 241 302 318 206 217 216 237 294 254 264 285 295 272 272 252 252 248 248 292 321 11 3 2 6 327 265 240 223 204 195 188 99 39 38 49 57 58 55 55 53 62 64 62
229 224 227 229 234 261 276 328 214 203 190 187 297 290 278 275 295 297 284 269 256 260 257 258 277 270 280 315 335 354 333 291 246 226 220 212 200 97 38 26 48 63 71 63 51 53 58 50 62
240 232 218 222 215 278 323 235 223 193 218 184 242 265 289 285 290 302 280 262 255 259 260 256 256 273 283 281 297 304 327 314 228 202 206 207 217 48 1 356 18 55 77 75 62 55 46 43 56
260 241 216 181 248 300 290 266 247 143 321 179 204 282 291 288 300 288 269 245 243 252 259 249 263 278 280 288 292 266 267 294 302 298 234 247 294 345 344 323 332 28 55 79 90 52 23 15 26
270 257 213 205 225 208 305 292 221 255 285 285 270 283 303 295 299 309 181 245 247 258 256 259 273 280 283 282 271 262 245 256 276 284 290 285 283 298 332 328 318 352 347 171 189 188 285 289 329
265 261 230 213 224 158 292 300 308 311 265 323 260 274 283 301 292 289 164 230 245 257 266 269 276 293 294 289 291 273 246 240 248 255 270 277 281 286 304 307 300 317 308 254 250 250 253 278 303
269 265 256 221 222 203 296 323 271 307 257 260 248 283 267 292 285 277 225 210 253 262 267 278 287 327 341 318 317 316 296 250 245 251 264 266 287 301 302 292 276 280 283 261 258 267 251 248 267
271 269 260 209 205 165 4 310 269 224 248 253 263 256 256 273 285 251 241 228 257 275 282 284 287 305 328 335 326 324 324 291 242 251 243 255 283 290 284 288 295 292 281 278 274 266 269 274 274
266 269 252 210 209 207 186 208 271 261 246 253 242 251 251 257 262 252 224 249 255 266 273 285 282 289 308 320 318 303 295 287 269 258 249 261 271 263 256 274 267 296 277 278 282 277 277 274 271
258 265 261 227 208 217 216 243 241 268 280 276 195 224 251 265 266 259 204 238 244 250 253 266 267 275 290 299 307 296 282 275 267 276 277 282 267 247 253 256 272 260 270 276 275 277 278 279 274
258 252 259 234 223 220 218 236 250 245 258 227 137 228 218 266 266 266 243 234 252 263 265 255 259 266 271 288 296 293 281 266 286 280 294 317 286 301 268 267 264 262 268 268 277 276 283 281 278
260 253 253 246 231 229 228 238 249 256 255 265 274 305 233 255 255 259 263 264 267 276 275 285 267 268 273 283 282 287 282 287 286 297 303 301 298 306 310 310 271 270 275 274 273 273 274 276 276
254 259 251 255 236 229 240 244 251 263 266 274 269 258 257 268 263 268 268 265 264 270 284 286 276 273 278 280 274 276 279 280 276 284 293 287 287 305 311 304 293 313 301 284 279 277 273 271 272
257 262 265 252 241 240 240 249 256 267 269 271 270 235 266 260 265 266 270 268 271 276 283 277 274 274 277 279 278 276 272 274 274 282 285 291 289 301 311 299 294 307 294 285 285 285 281 281 273
259 264 255 241 238 237 253 263 256 262 264 271 269 251 253 261 262 262 264 266 264 269 268 260 276 276 277 273 276 275 275 280 280 281 278 285 289 295 299 295 297 293 287 284 282 280 278 280 277
248 261 263 255 240 244 251 259 255 281 296 278 275 274 277 268 265 262 262 265 266 265 260 267 266 264 269 276 282 278 278 282 282 277 279 285 284 289 290 289 288 290 288 285 281 277 277 273 273
248 251 264 265 259 256 256 265 277 278 290 289 283 285 278 264 265 258 263 264 266 266 268 273 266 263 266 271 276 276 274 274 276 273 270 275 280 280 280 283 284 285 287 285 282 280 274 271 272
241 237 227 235 226 256 253 263 259 274 283 288 282 275 274 272 260 254 250 255 255 267 272 271 271 267 266 268 271 272 267 268 266 262 270 272 268 270 273 280 283 285 286 285 282 278 276 274 271
273 250 234 242 228 226 241 249 249 254 259 274 277 272 274 281 270 267 268 250 242 262 270 271 270 268 265 268 268 265 263 262 261 267 267 265 265 269 277 279 285 288 287 286 285 281 280 278 277
268 269 265 259 239 231 233 250 245 237 245 260 272 282 283 287 289 288 282 248 267 267 266 265 266 266 264 262 258 264 264 262 264 269 267 265 267 274 278 282 285 288 288 287 286 283 280 279 278
251 240 265 262 248 248 234 236 244 243 245 257 278 280 284 289 291 284 274 265 269 257 263 266 262 263 261 264 261 264 264 262 264 270 270 269 273 275 279 281 285 287 285 284 283 281 279 281 282
249 246 241 239 245 255 264 263 265 258 247 241 245 259 272 275 280 279 273 261 263 255 258 267 263 261 263 261 263 265 267 270 270 267 266 270 273 277 277 279 280 280 282 283 283 281 280 282 280
243 251 248 240 235 245 252 242 238 241 248 247 238 242 256 263 261 270 264 265 258 254 258 262 265 261 262 262 264 266 267 271 270 268 270 273 275 274 274 275 276 277 281 282 282 281 281 283 282
253 255 255 250 243 247 230 240 242 237 240 242 239 240 246 250 255 260 262 262 262 256 244 249 260 260 258 263 266 263 265 269 268 271 269 270 270 270 272 274 274 275 277 279 281 282 283 281 282
269 272 269 267 258 246 236 228 236 235 239 243 246 248 248 251 259 267 259 275 251 239 252 234 244 253 267 262 260 262 265 266 266 266 268 269 270 269 269 271 274 277 276 278 281 281 281 282 283
273 271 265 256 267 264 255 252 253 245 253 257 255 267 251 240 249 248 265 237 246 274 265 251 251 249 264 260 261 262 261 261 264 263 266 266 268 270 273 274 274 273 275 278 279 281 281 282 282
271 255 247 253 258 268 269 262 262 253 249 245 259 254 256 244 252 253 257 257 259 268 262 257 262 268 257 254 254 257 258 260 264 266 266 267 269 272 272 273 274 275 276 277 278 280 281 283 284
283 274 262 250 243 254 264 267 266 259 260 261 263 252 249 252 229 244 254 254 260 257 258 259 261 257 268 248 253 256 260 263 263 264 265 268 270 271 272 275 276 276 276 277 278 279 280 281 282